Weather History for KDFW - July, 2014

Change the Weather History Date:

Wednesday, July 30, 2014

  Actual Average Record
Temperature  
Mean Temperature 82 °F 86 °F  
Max Temperature 91 °F 97 °F 106 °F (1986)
Min Temperature 73 °F 76 °F 63 °F (1971)
Degree Days  
Heating Degree Days 0 0  
Month to date heating degree days 0 0  
Since 1 June heating degree days 0 0  
Since 1 July heating degree days 0 0  
Cooling Degree Days 17 21  
Month to date cooling degree days 578 609  
Year to date cooling degree days 1581 1522  
Since 1 June cooling degree days 1105 1100  
Growing Degree Days 32 (Base 50)    
Moisture  
Dew Point 69 °F    
Average Humidity 72    
Maximum Humidity 94    
Minimum Humidity 50    
Precipitation  
Precipitation 0.17 in 0.05 in 5.27 in (1933)
Month to date precipitation 0.98 2.10  
Year to date precipitation 11.57 22.14  
Sea Level Pressure  
Sea Level Pressure 29.97 in    
Wind  
Wind Speed 11 mph (SE)    
Max Wind Speed 22 mph    
Max Gust Speed 28 mph    
Visibility 9 miles    
Events Rain    
T = Trace of Precipitation, MM = Missing Value Source: NWS Daily Summary

Daily Weather History Graph

Daily Weather History Graph

Search for Another Location

Airport or City:

Trip Planner

Search our weather history database for the weather conditions in past years. The results will help you decide how hot, cold, wet, or windy it might be!

Date:

Astronomy

Jul. 30, 2014 Rise Set
Actual Time 6:40 AM CDT 8:28 PM CDT
Civil Twilight 6:13 AM CDT 8:55 PM CDT
Nautical Twilight 5:40 AM CDT 9:27 PM CDT
Astronomical Twilight 5:05 AM CDT 10:02 PM CDT
Moon 9:59 AM CDT (7/30) 10:26 PM CDT (7/30)
Length of Visible Light 14h 42m
Length of Day
13h 47m
Waxing Crescent, 12% of the Moon is Illuminated
Jul 30
Waxing Crescent
Aug 3
First Quarter
Aug 10
Full
Aug 17
Last Quarter
Aug 25
New

Hourly Weather History & Observations

Time (CDT) Temp. Heat Index Dew Point Humidity Pressure Visibility Wind Dir Wind Speed Gust Speed Precip Events Conditions
12:53 AM 75.2 °F - 62.6 °F 65% 30.05 in 10.0 mi Calm Calm - N/A   Mostly Cloudy
1:53 AM 75.0 °F - 63.0 °F 66% 30.01 in 10.0 mi ESE 3.5 mph - N/A   Mostly Cloudy
2:53 AM 75.0 °F - 64.9 °F 71% 30.00 in 10.0 mi ESE 5.8 mph - N/A   Mostly Cloudy
3:53 AM 75.9 °F - 64.9 °F 69% 30.00 in 10.0 mi SSE 5.8 mph - N/A   Mostly Cloudy
4:53 AM 77.0 °F - 64.9 °F 66% 30.01 in 10.0 mi ESE 4.6 mph - N/A   Overcast
5:53 AM 77.0 °F - 66.0 °F 69% 30.01 in 10.0 mi SSE 8.1 mph - N/A   Overcast
6:53 AM 78.1 °F - 66.9 °F 68% 30.02 in 10.0 mi SSE 8.1 mph - N/A   Overcast
7:53 AM 75.9 °F - 70.0 °F 82% 30.04 in 7.0 mi East 5.8 mph - 0.01 in Rain Light Rain
8:53 AM 75.0 °F - 72.0 °F 90% 30.05 in 2.5 mi East 6.9 mph - 0.09 in Rain Heavy Rain
9:29 AM 75.0 °F - 73.0 °F 94% 30.07 in 4.0 mi ESE 6.9 mph - 0.06 in Rain Light Rain
9:53 AM 75.0 °F - 73.0 °F 94% 30.04 in 5.0 mi ESE 10.4 mph - 0.06 in Rain Light Rain
10:53 AM 78.1 °F - 73.0 °F 84% 30.04 in 10.0 mi SE 12.7 mph - 0.01 in   Overcast
11:53 AM 82.0 °F 86.3 °F 71.1 °F 69% 30.03 in 10.0 mi SE 15.0 mph 23.0 mph N/A   Mostly Cloudy
12:53 PM 84.9 °F 88.8 °F 69.1 °F 59% 30.01 in 10.0 mi SSE 15.0 mph - N/A   Mostly Cloudy
1:53 PM 86.0 °F 90.1 °F 69.1 °F 57% 29.99 in 10.0 mi SSE 13.8 mph - N/A   Mostly Cloudy
2:53 PM 84.9 °F 89.4 °F 70.0 °F 61% 29.96 in 10.0 mi SSE 13.8 mph - N/A   Overcast
3:53 PM 86.0 °F 91.5 °F 71.1 °F 61% 29.94 in 10.0 mi SE 13.8 mph - N/A   Overcast
4:53 PM 89.1 °F 96.0 °F 72.0 °F 57% 29.91 in 10.0 mi ESE 13.8 mph - N/A   Mostly Cloudy
5:53 PM 90.0 °F 95.4 °F 70.0 °F 52% 29.88 in 10.0 mi SE 13.8 mph - N/A   Mostly Cloudy
6:53 PM 89.6 °F 93.4 °F 68.0 °F 49% 29.90 in 10.0 mi SSE 13.8 mph - N/A   Mostly Cloudy
7:53 PM 88.0 °F 92.1 °F 69.1 °F 53% 29.87 in 10.0 mi ESE 10.4 mph - N/A   Scattered Clouds
8:53 PM 84.9 °F 90.1 °F 71.1 °F 63% 29.87 in 10.0 mi ESE 16.1 mph - N/A   Scattered Clouds
9:53 PM 84.0 °F 89.0 °F 71.1 °F 65% 29.89 in 10.0 mi SE 13.8 mph - N/A   Scattered Clouds
10:53 PM 82.4 °F 87.2 °F 71.6 °F 70% 29.89 in 10.0 mi SE 21.9 mph 27.6 mph N/A   Scattered Clouds
11:53 PM 82.0 °F 85.9 °F 70.0 °F 67% 29.88 in 10.0 mi SSE 17.3 mph - N/A   Mostly Cloudy